TimeCDT,TemperatureF,Dew PointF,Humidity,Sea Level PressureIn,VisibilityMPH,Wind Direction,Wind SpeedMPH,Gust SpeedMPH,PrecipitationIn,Events,Conditions,WindDirDegrees,DateUTC
12:15 AM,55.4,39.2,54,29.92,10.0,South,15.0,-,N/A,,Clear,180,2013-04-28 05:15:00
12:35 AM,55.4,39.2,54,29.92,10.0,South,15.0,-,N/A,,Clear,190,2013-04-28 05:35:00
12:55 AM,55.4,41.0,58,29.92,10.0,South,16.1,23.0,N/A,,Clear,190,2013-04-28 05:55:00
1:15 AM,55.4,42.8,63,29.91,10.0,South,17.3,-,N/A,,Clear,190,2013-04-28 06:15:00
1:35 AM,55.4,42.8,63,29.91,10.0,South,17.3,-,N/A,,Clear,190,2013-04-28 06:35:00
1:55 AM,55.4,42.8,63,29.91,10.0,SSW,17.3,24.2,N/A,,Clear,200,2013-04-28 06:55:00
2:15 AM,53.6,42.8,67,29.91,10.0,SSW,20.7,26.5,N/A,,Clear,200,2013-04-28 07:15:00
2:35 AM,53.6,42.8,67,29.90,10.0,SSW,18.4,23.0,N/A,,Clear,200,2013-04-28 07:35:00
2:55 AM,53.6,42.8,67,29.90,10.0,South,17.3,23.0,N/A,,Clear,190,2013-04-28 07:55:00
3:15 AM,53.6,42.8,67,29.89,10.0,SSW,16.1,24.2,N/A,,Clear,200,2013-04-28 08:15:00
3:35 AM,53.6,42.8,67,29.88,10.0,SSW,16.1,24.2,N/A,,Clear,200,2013-04-28 08:35:00
3:55 AM,51.8,42.8,71,29.87,10.0,South,15.0,-,N/A,,Clear,190,2013-04-28 08:55:00
4:15 AM,51.8,42.8,71,29.87,10.0,South,15.0,-,N/A,,Clear,190,2013-04-28 09:15:00
4:35 AM,51.8,42.8,71,29.86,10.0,South,17.3,-,N/A,,Clear,190,2013-04-28 09:35:00
4:55 AM,51.8,42.8,71,29.85,10.0,South,16.1,-,N/A,,Clear,190,2013-04-28 09:55:00
5:15 AM,50.0,42.8,76,29.85,10.0,South,16.1,-,N/A,,Clear,190,2013-04-28 10:15:00
5:35 AM,48.2,41.0,76,29.84,10.0,South,16.1,-,N/A,,Clear,180,2013-04-28 10:35:00
5:55 AM,48.2,42.8,82,29.84,10.0,South,16.1,-,N/A,,Clear,190,2013-04-28 10:55:00
6:15 AM,48.2,41.0,76,29.83,9.0,South,16.1,-,N/A,,Clear,190,2013-04-28 11:15:00
6:35 AM,48.2,42.8,82,29.83,9.0,South,15.0,-,N/A,,Clear,190,2013-04-28 11:35:00
6:55 AM,48.2,42.8,82,29.83,10.0,South,16.1,-,N/A,,Clear,190,2013-04-28 11:55:00
7:15 AM,51.8,42.8,71,29.83,10.0,SSW,19.6,25.3,N/A,,Clear,200,2013-04-28 12:15:00
7:35 AM,51.8,44.6,76,29.83,10.0,South,19.6,-,N/A,,Clear,190,2013-04-28 12:35:00
8:15 AM,53.6,44.6,72,29.82,10.0,South,20.7,26.5,N/A,,Clear,190,2013-04-28 13:15:00
8:35 AM,55.4,44.6,67,29.82,10.0,South,18.4,26.5,N/A,,Clear,190,2013-04-28 13:35:00
8:55 AM,57.2,44.6,63,29.82,10.0,SSW,18.4,27.6,N/A,,Clear,200,2013-04-28 13:55:00
9:15 AM,60.8,44.6,55,29.81,10.0,SSW,21.9,-,N/A,,Clear,210,2013-04-28 14:15:00
9:35 AM,60.8,44.6,55,29.80,10.0,SSW,21.9,28.8,N/A,,Clear,200,2013-04-28 14:35:00
9:55 AM,62.6,44.6,52,29.79,10.0,SSW,27.6,31.1,N/A,,Clear,200,2013-04-28 14:55:00
10:15 AM,64.4,44.6,49,29.79,10.0,SSW,20.7,29.9,N/A,,Clear,210,2013-04-28 15:15:00
10:35 AM,64.4,44.6,49,29.79,10.0,SSW,21.9,-,N/A,,Clear,200,2013-04-28 15:35:00
10:55 AM,66.2,46.4,49,29.79,10.0,SSW,24.2,28.8,N/A,,Clear,200,2013-04-28 15:55:00
11:15 AM,69.8,46.4,43,29.78,10.0,SSW,25.3,-,N/A,,Clear,200,2013-04-28 16:15:00
11:35 AM,71.6,46.4,41,29.78,10.0,South,21.9,26.5,N/A,,Clear,190,2013-04-28 16:35:00
11:55 AM,71.6,46.4,41,29.78,10.0,SSW,21.9,27.6,N/A,,Clear,200,2013-04-28 16:55:00
12:15 PM,73.4,44.6,36,29.77,10.0,SSW,18.4,25.3,N/A,,Clear,210,2013-04-28 17:15:00
12:35 PM,75.2,44.6,34,29.76,10.0,South,19.6,-,N/A,,Clear,190,2013-04-28 17:35:00
12:55 PM,75.2,42.8,31,29.75,10.0,SSW,17.3,25.3,N/A,,Clear,200,2013-04-28 17:55:00
1:15 PM,77.0,44.6,32,29.75,10.0,SSW,17.3,24.2,N/A,,Clear,210,2013-04-28 18:15:00
1:35 PM,77.0,42.8,29,29.75,10.0,SSW,17.3,-,N/A,,Clear,200,2013-04-28 18:35:00
1:55 PM,78.8,41.0,26,29.74,10.0,SSW,15.0,24.2,N/A,,Clear,200,2013-04-28 18:55:00
2:15 PM,78.8,42.8,28,29.74,10.0,SSW,16.1,21.9,N/A,,Clear,200,2013-04-28 19:15:00
2:35 PM,80.6,42.8,26,29.74,10.0,SSW,18.4,23.0,N/A,,Clear,200,2013-04-28 19:35:00
2:55 PM,80.6,42.8,26,29.73,10.0,SSW,15.0,-,N/A,,Clear,200,2013-04-28 19:55:00
3:15 PM,82.4,42.8,25,29.72,10.0,South,19.6,23.0,N/A,,Clear,180,2013-04-28 20:15:00
3:35 PM,82.4,41.0,23,29.72,10.0,SSW,16.1,23.0,N/A,,Clear,200,2013-04-28 20:35:00
3:55 PM,82.4,39.2,21,29.71,10.0,SSW,15.0,-,N/A,,Clear,200,2013-04-28 20:55:00
4:15 PM,82.4,37.4,20,29.70,10.0,SSW,13.8,20.7,N/A,,Clear,210,2013-04-28 21:15:00
4:35 PM,82.4,37.4,20,29.69,10.0,SSW,12.7,-,N/A,,Clear,210,2013-04-28 21:35:00
4:55 PM,82.4,39.2,21,29.69,10.0,SSW,11.5,18.4,N/A,,Clear,210,2013-04-28 21:55:00
5:15 PM,82.4,35.6,19,29.69,10.0,SSW,13.8,-,N/A,,Clear,210,2013-04-28 22:15:00
5:35 PM,80.6,37.4,21,29.69,10.0,SW,11.5,-,N/A,,Clear,220,2013-04-28 22:35:00
5:55 PM,-9999,-9999,N/A,29.73,10.0,NNW,27.6,33.4,N/A,,Mostly Cloudy,330,2013-04-28 22:55:00
6:15 PM,64.4,48.2,56,29.75,10.0,NNW,18.4,33.4,0.02,Thunderstorm,Thunderstorm,340,2013-04-28 23:15:00
6:35 PM,64.4,51.8,64,29.73,10.0,NNE,16.1,-,0.02,,Scattered Clouds,20,2013-04-28 23:35:00
6:55 PM,68.0,48.2,49,29.74,10.0,North,18.4,-,0.02,,Clear,10,2013-04-28 23:55:00
7:15 PM,66.2,44.6,46,29.74,10.0,North,20.7,-,N/A,,Clear,360,2013-04-29 00:15:00
7:35 PM,66.2,44.6,46,29.75,10.0,North,19.6,25.3,N/A,,Clear,10,2013-04-29 00:35:00
7:55 PM,64.4,42.8,45,29.77,10.0,North,16.1,-,N/A,,Partly Cloudy,360,2013-04-29 00:55:00
8:15 PM,64.4,42.8,45,29.78,10.0,North,17.3,-,N/A,,Mostly Cloudy,360,2013-04-29 01:15:00
8:35 PM,62.6,42.8,48,29.79,10.0,North,13.8,-,N/A,,Overcast,360,2013-04-29 01:35:00
8:55 PM,62.6,42.8,48,29.80,10.0,North,12.7,-,N/A,,Overcast,360,2013-04-29 01:55:00
9:15 PM,62.6,42.8,48,29.81,10.0,North,9.2,-,N/A,,Mostly Cloudy,10,2013-04-29 02:15:00
9:35 PM,60.8,42.8,52,29.81,10.0,North,8.1,-,N/A,,Overcast,10,2013-04-29 02:35:00
9:55 PM,57.2,44.6,63,29.81,10.0,North,6.9,-,0.01,,Mostly Cloudy,10,2013-04-29 02:55:00
10:15 PM,57.2,44.6,63,29.85,10.0,NW,10.4,-,N/A,Thunderstorm,Mostly Cloudy,310,2013-04-29 03:15:00
10:35 PM,55.4,44.6,67,29.83,10.0,North,13.8,-,N/A,,Overcast,360,2013-04-29 03:35:00
10:55 PM,55.4,46.4,72,29.81,9.0,NE,10.4,-,0.04,,Overcast,50,2013-04-29 03:55:00
11:15 PM,55.4,46.4,72,29.83,10.0,NNE,3.5,-,N/A,Thunderstorm,Overcast,20,2013-04-29 04:15:00
11:35 PM,53.6,46.4,77,29.81,10.0,NNE,4.6,-,N/A,Thunderstorm,Partly Cloudy,20,2013-04-29 04:35:00
11:55 PM,53.6,46.4,77,29.83,10.0,North,10.4,-,N/A,,Clear,360,2013-04-29 04:55:00